Regional Weather Roundup
Issued by NWS

Home | Current Version | Previous Version | Graphics & Text | Print | Product List | Glossary On
Versions: 1 2 3 4 5 6 7 8 9 10 11 12 13 14 15 16 17 18 19 20 21 22 23 24 25 26 27 28 29 30 31 32 33 34 35 36 37 38 39 40 41 42 43 44 45 46 47 48 49 50
000
ASUS43 KFSD 020802
RWRSD

WEATHER ROUNDUP FOR SOUTH DAKOTA
NATIONAL WEATHER SERVICE SIOUX FALLS SD
300 AM CDT TUE SEP 02 2014

NOTE: "FAIR" INDICATES FEW OR NO CLOUDS BELOW 12,000 FEET WITH NO
SIGNIFICANT WEATHER AND/OR OBSTRUCTIONS TO VISIBILITY.


SDZ001>005-009-010-012>017-020900-
NORTHWEST AND NORTH CENTRAL SOUTH DAKOTA

CITY           SKY/WX    TMP DP  RH WIND       PRES   REMARKS
BUFFALO          N/A     50  44  80 W9        29.86F
FAITH            N/A     50  47  89 SW9       29.93F
MOBRIDGE       CLEAR     49  48  97 CALM      29.88S
$$

SDZ012>016-024>037-041>051-057-063-072>074-020900-
SOUTHWEST AND SOUTH CENTRAL SOUTH DAKOTA

CITY           SKY/WX    TMP DP  RH WIND       PRES   REMARKS
RAPID CTY ARPT CLEAR     48  42  80 CALM      29.99F
PIERRE         CLEAR     54  52  93 SW8       29.91F
CUSTER         CLEAR     43  35  73 W6        30.08F
ELLSWORTH AFB  CLEAR     50  43  76 W9        29.98F
PHILIP         CLEAR     51  48  89 W8        29.96F
PINE RIDGE     CLEAR     41  41 100 MISG      30.03S
WINNER         FAIR      54  50  86 SW7       29.96F
$$

SDZ004>011-016>023-039-040-020900-
NORTHEAST SOUTH DAKOTA

CITY           SKY/WX    TMP DP  RH WIND       PRES   REMARKS
ABERDEEN       CLEAR     50  50 100 W7        29.88S
WATERTOWN      PTCLDY    55  53  93 W5        29.88S
SISSETON         N/A     56  54  93 W7        29.84F
$$

SDZ017-020-022-023-036>040-048>070-020900-
SOUTHEAST SOUTH DAKOTA

CITY           SKY/WX    TMP DP  RH WIND       PRES   REMARKS
SIOUX FALLS    CLOUDY    61  54  77 VRB3      29.90R
HURON          CLEAR     56  54  93 S3        29.89S
CHAMBERLAIN    CLEAR     54  52  94 SW6       29.93F
MITCHELL       CLEAR     60  56  86 SW10      29.91F
YANKTON        PTCLDY    57  55  94 SW8       29.93S
$$

ABBREVIATIONS USED IN REMARKS
   TC - TEMPERATURE IN CELSIUS
  WCI - WIND CHILL INDEX
   HX - HEAT INDEX
  VSB - VISIBILITY



USA.gov is the U.S. government's official web portal to all federal, state and local government web resources and services.